Wind_Speed
15 16 16 17 17 18 18 18 18 17 16 16 15 13 11 9 8 7 4 3 4 5 7 9 11 13 15 17 19 22 23 25 26 26 28 30 32 33 33 34 33 34 34
14 15 16 16 17 17 17 17 17 17 16 15 15 13 12 10 9 7 6 3 3 4 6 7 9 11 12 14 17 19 21 22 24 24 26 27 29 30 31 33 33 34 35
14 14 15 16 16 16 16 17 17 17 16 15 14 14 13 11 10 8 6 5 3 4 5 6 8 9 10 12 15 16 18 20 21 22 23 24 26 27 30 31 33 33 34
13 14 15 15 16 16 16 16 16 16 15 15 14 13 13 12 11 10 8 6 4 4 4 5 7 8 10 11 13 15 16 18 19 21 21 23 24 25 27 29 31 32 33
13 14 14 15 15 15 15 15 15 15 15 14 13 13 12 12 11 10 9 8 6 4 4 5 6 8 9 10 12 14 15 17 18 20 20 21 23 24 25 27 29 31 32
13 13 14 15 15 15 15 15 15 15 15 14 13 13 12 12 11 10 10 9 7 6 4 4 5 7 9 10 11 13 14 16 17 19 20 21 22 23 23 24 26 28 29
12 13 14 15 15 14 14 15 15 14 14 14 13 13 13 12 11 10 9 9 8 8 6 5 5 6 7 9 10 11 12 14 16 18 19 20 21 22 23 23 25 26 28
12 13 14 15 15 14 14 14 14 14 14 14 13 13 12 12 11 10 9 9 9 8 7 6 6 6 7 8 9 11 12 13 14 16 18 19 20 21 21 22 23 25 26
13 13 14 14 15 15 14 13 13 13 13 13 13 13 12 12 11 11 10 9 9 9 8 8 8 7 7 8 9 10 12 13 14 15 17 19 19 20 21 22 22 23 24
14 14 14 14 14 14 14 14 13 13 13 13 13 13 13 12 12 11 11 11 10 10 9 9 9 8 8 8 9 10 11 12 14 15 17 18 19 20 21 21 22 23 24
15 15 15 15 15 15 15 14 14 14 13 13 13 13 13 13 13 13 12 12 12 12 11 10 10 10 10 10 10 11 12 12 13 14 15 17 18 19 20 22 22 23 24
17 17 16 16 16 15 15 15 15 15 15 14 14 14 14 14 14 14 13 13 13 13 12 11 11 11 11 11 11 12 12 13 13 14 15 17 18 19 20 21 23 24 25
19 19 18 18 17 17 16 16 16 16 16 16 16 16 16 15 15 15 15 15 14 14 14 13 13 13 13 13 13 14 14 14 15 15 16 17 18 19 20 21 23 24 25
22 21 20 20 19 19 18 18 18 18 17 17 17 17 17 17 17 17 17 16 16 16 16 15 15 15 15 15 15 15 15 16 16 17 18 18 19 20 21 22 23 25 25
24 23 23 22 21 21 20 20 19 19 19 19 19 19 19 19 19 19 19 19 18 18 18 17 17 17 18 18 18 18 18 18 19 19 19 20 21 22 22 23 24 25 26
26 25 25 24 24 23 23 22 22 21 21 21 21 21 21 21 21 21 21 21 20 20 20 20 20 20 20 20 20 20 21 21 21 21 22 22 22 23 24 25 26 27 27
28 27 27 26 26 25 25 24 24 23 23 23 23 23 24 24 24 24 24 23 23 22 22 22 22 23 23 23 23 23 23 24 24 24 25 25 25 26 26 27 27 28 29
31 30 29 29 28 28 27 27 26 26 26 26 26 26 26 26 26 26 26 26 25 25 24 24 24 25 25 25 25 25 26 26 26 27 27 28 28 29 29 30 30 31 31
33 32 32 31 31 30 30 29 29 29 29 29 29 28 28 28 28 28 28 28 28 27 27 27 27 27 28 28 28 28 28 28 28 29 29 30 31 31 32 33 33 34 34
36 35 34 34 33 33 33 32 31 31 31 31 31 31 31 31 31 31 30 30 30 30 30 30 30 30 30 31 31 31 31 31 31 31 32 32 33 34 35 35 36 37 38
38 37 37 37 36 35 35 34 34 34 34 33 33 33 33 33 33 32 32 32 32 32 32 32 32 32 33 33 33 33 33 33 34 34 34 35 36 37 37 38 39 40 40
40 40 39 39 38 38 37 37 36 36 36 36 36 36 36 36 35 35 35 34 34 34 34 34 34 34 35 35 35 35 35 35 36 36 37 38 39 40 40 41 41 42 43
42 42 42 41 41 40 40 39 39 38 38 38 38 38 38 38 37 37 37 37 37 36 36 36 36 36 36 36 36 37 37 38 38 39 39 40 41 42 43 44 44 45 45
44 43 43 42 42 42 41 40 40 40 40 40 40 40 39 39 39 38 38 38 38 38 38 38 38 37 37 37 38 38 39 40 41 41 42 43 43 44 45 46 46 47 48
44 43 43 43 42 42 42 42 42 42 42 41 41 41 40 40 40 40 40 39 39 39 39 39 39 39 39 39 40 40 41 42 43 43 44 44 45 46 46 47 48 49 50
44 44 44 44 43 43 43 43 42 42 42 42 42 42 41 41 41 41 41 41 41 41 40 40 40 40 40 40 41 41 42 43 44 45 45 46 46 47 48 48 49 50 50
Wind_Direction
350 354 356 358 360 1 3 4 6 8 9 9 9 10 7 4 1 357 342 296 258 244 236 233 231 229 230 232 232 232 234 233 233 233 233 233 233 233 233 234 234 235 235
347 350 353 356 358 360 2 3 5 7 9 9 10 10 9 7 4 2 355 334 280 257 243 237 233 232 232 232 231 231 234 233 232 233 234 234 233 233 235 236 236 236 237
345 348 351 353 355 357 360 2 4 6 7 9 11 12 11 11 7 1 354 340 310 277 253 244 239 236 235 234 232 231 232 232 232 234 234 233 234 234 236 238 237 236 238
343 346 349 352 354 355 357 359 1 4 5 6 7 8 10 10 10 8 1 349 329 297 270 255 248 241 238 237 236 234 234 235 235 236 237 236 235 236 237 238 239 239 240
341 344 346 348 351 353 355 357 358 360 1 1 2 1 2 5 7 8 5 1 352 327 299 272 257 247 243 244 239 237 237 238 239 238 239 240 237 239 240 240 241 242 243
336 341 345 346 347 349 352 354 356 357 359 359 358 357 357 358 360 2 3 1 356 350 332 303 277 262 255 253 246 243 240 239 238 239 242 244 242 243 243 243 242 243 243
329 334 339 343 343 344 346 349 352 355 356 357 356 356 356 356 357 358 359 357 354 351 339 322 303 283 270 261 254 250 246 242 242 243 244 246 246 245 245 246 246 246 246
321 326 331 336 339 340 341 343 346 350 353 355 356 355 355 355 353 352 351 351 349 346 341 327 313 298 280 270 261 255 252 250 248 248 247 248 248 247 248 249 249 249 249
313 318 323 329 333 335 336 337 339 342 346 349 350 351 350 349 349 347 344 342 341 338 332 326 316 301 288 274 268 263 260 258 257 257 253 251 252 251 251 252 252 252 252
305 310 315 320 325 328 329 329 330 334 337 340 343 344 343 342 341 340 339 335 332 329 325 321 317 307 298 285 276 271 269 267 264 261 257 254 254 255 254 255 257 256 256
297 302 307 311 316 320 322 322 322 323 326 329 332 335 336 336 335 334 331 329 326 323 318 314 313 307 300 295 289 281 275 272 269 265 263 259 258 258 258 258 258 258 259
291 294 299 303 307 311 314 315 315 315 316 319 322 324 326 328 328 327 325 324 321 319 314 308 302 301 298 293 289 284 282 278 273 269 266 265 261 260 259 259 259 260 261
285 288 292 295 299 302 305 308 309 310 311 312 313 316 317 319 320 320 318 315 314 313 311 306 301 297 295 293 289 284 281 278 275 273 271 269 266 264 262 262 262 263 263
281 284 287 289 291 294 297 301 304 305 305 307 308 309 311 312 313 313 313 311 308 306 304 301 299 296 294 292 290 287 285 282 278 276 274 272 270 269 267 266 265 266 266
277 280 282 284 286 289 291 294 297 299 300 301 302 304 305 307 308 308 309 307 305 303 300 298 295 294 291 289 287 285 284 282 280 278 277 274 273 272 272 271 270 269 269
274 276 278 280 282 284 287 289 291 294 295 297 297 299 300 301 303 304 304 304 302 299 297 295 293 292 291 289 287 286 284 283 281 279 278 277 275 274 274 273 273 273 272
271 273 275 276 278 281 283 285 286 288 290 293 294 295 296 297 298 300 300 300 299 297 295 292 291 289 288 288 287 286 285 283 281 280 279 278 278 276 275 275 275 274 273
269 271 272 273 275 278 280 282 283 285 287 289 291 292 293 294 295 296 297 297 297 295 293 291 289 288 287 286 286 286 285 284 283 280 279 279 278 278 277 277 276 276 276
267 269 270 272 273 276 278 280 281 283 285 288 289 289 290 292 292 293 294 294 294 293 292 290 289 287 286 286 285 285 285 285 284 283 282 281 280 280 279 279 278 277 277
266 267 268 270 272 275 276 278 280 282 284 286 287 287 288 289 290 291 291 292 292 292 291 290 288 287 285 284 284 284 284 284 284 284 283 283 282 282 281 281 280 279 278
265 266 267 269 271 273 275 277 279 281 282 284 285 286 288 289 289 290 290 291 291 290 290 289 289 287 286 284 284 284 284 284 284 284 284 283 283 283 282 282 281 280 279
263 265 267 268 270 271 273 276 277 279 281 282 283 285 287 287 288 289 289 289 290 290 289 289 288 288 287 285 284 284 284 284 284 284 284 284 284 283 283 282 282 281 280
263 264 266 267 269 271 272 274 276 278 279 281 283 284 285 286 286 287 288 288 289 290 290 289 288 287 286 286 285 285 285 285 285 286 286 285 285 285 284 283 283 282 282
262 263 265 266 268 270 271 273 274 276 278 280 282 283 284 285 285 286 287 288 288 288 289 289 288 287 286 286 286 286 286 286 287 287 287 287 287 286 286 285 284 284 284
261 262 263 265 267 269 271 273 274 276 277 279 280 282 283 285 285 286 287 287 287 288 288 288 287 287 286 286 287 287 288 288 288 288 288 288 288 287 287 287 287 287 286
262 263 264 265 267 269 270 272 274 276 277 279 280 282 283 284 285 286 287 287 287 287 287 287 286 286 287 287 288 289 289 289 289 289 289 289 289 289 289 288 288 288 287
Height
5812 5809 5805 5801 5797 5793 5788 5784 5780 5776 5772 5768 5764 5761 5758 5756 5754 5752 5751 5750 5750 5751 5751 5752 5754 5755 5757 5759 5760 5763 5765 5767 5770 5773 5776 5779 5783 5786 5790 5793 5797 5800 5804
5811 5808 5804 5800 5796 5792 5788 5784 5780 5776 5772 5768 5765 5762 5759 5756 5754 5752 5750 5749 5749 5749 5750 5750 5751 5752 5754 5755 5756 5758 5760 5763 5765 5768 5770 5773 5776 5779 5783 5786 5790 5793 5797
5810 5807 5803 5800 5796 5792 5788 5784 5780 5776 5772 5769 5765 5762 5759 5756 5754 5752 5750 5749 5748 5748 5748 5748 5749 5750 5751 5752 5753 5755 5756 5758 5760 5763 5765 5768 5770 5773 5776 5779 5782 5786 5789
5809 5806 5802 5799 5795 5791 5788 5784 5780 5776 5773 5769 5766 5763 5760 5757 5754 5752 5750 5749 5748 5747 5747 5747 5747 5747 5748 5749 5750 5751 5753 5755 5756 5758 5760 5762 5765 5767 5770 5772 5775 5778 5781
5807 5804 5801 5798 5794 5791 5787 5784 5780 5776 5773 5769 5766 5763 5760 5758 5755 5753 5750 5749 5747 5746 5745 5745 5745 5745 5746 5747 5747 5748 5749 5751 5752 5754 5756 5757 5759 5761 5764 5766 5768 5771 5773
5806 5803 5800 5796 5793 5790 5786 5783 5780 5776 5773 5770 5766 5763 5760 5758 5755 5753 5751 5749 5747 5746 5744 5744 5743 5743 5744 5744 5744 5745 5746 5747 5749 5750 5751 5753 5754 5756 5757 5759 5761 5763 5766
5804 5801 5798 5795 5792 5789 5785 5782 5779 5776 5773 5769 5766 5763 5761 5758 5756 5753 5751 5749 5747 5745 5744 5743 5742 5742 5742 5742 5742 5742 5743 5744 5745 5746 5747 5748 5749 5750 5752 5753 5755 5756 5758
5801 5799 5796 5793 5790 5787 5784 5781 5778 5775 5772 5769 5766 5763 5761 5758 5755 5753 5751 5749 5747 5745 5743 5742 5741 5740 5739 5739 5739 5740 5740 5741 5741 5742 5743 5743 5744 5745 5746 5747 5748 5750 5751
5799 5796 5794 5791 5788 5785 5782 5779 5777 5774 5771 5768 5766 5763 5760 5758 5755 5753 5750 5748 5746 5744 5743 5741 5739 5738 5737 5737 5737 5737 5737 5737 5737 5738 5738 5739 5739 5740 5741 5742 5742 5744 5744
5795 5793 5791 5788 5786 5783 5780 5778 5775 5772 5770 5767 5765 5762 5759 5757 5754 5752 5750 5747 5745 5743 5741 5740 5738 5737 5736 5735 5734 5734 5733 5733 5733 5733 5733 5733 5734 5734 5735 5736 5736 5737 5738
5791 5790 5788 5785 5783 5780 5778 5775 5773 5770 5768 5766 5763 5761 5758 5755 5753 5751 5748 5746 5743 5741 5739 5738 5736 5735 5733 5732 5731 5731 5730 5729 5729 5729 5728 5728 5728 5729 5729 5730 5730 5731 5731
5787 5785 5783 5782 5779 5777 5775 5772 5770 5768 5765 5763 5761 5759 5756 5753 5751 5748 5746 5744 5741 5739 5737 5735 5734 5732 5731 5729 5728 5727 5726 5725 5725 5724 5724 5723 5723 5723 5723 5724 5724 5724 5724
5781 5780 5779 5777 5775 5773 5771 5769 5767 5764 5762 5760 5758 5755 5753 5751 5748 5746 5744 5741 5739 5737 5735 5733 5731 5730 5728 5726 5725 5724 5722 5721 5721 5720 5719 5718 5718 5718 5717 5717 5717 5717 5717
5775 5774 5773 5771 5770 5768 5766 5764 5762 5760 5758 5756 5754 5751 5749 5747 5745 5743 5740 5738 5735 5733 5731 5729 5727 5726 5724 5723 5721 5720 5718 5717 5716 5715 5714 5713 5712 5712 5711 5711 5711 5710 5710
5768 5767 5766 5765 5764 5762 5761 5759 5757 5755 5753 5751 5749 5747 5745 5743 5740 5738 5736 5733 5731 5729 5727 5725 5723 5721 5720 5718 5716 5715 5714 5712 5711 5710 5708 5708 5707 5706 5705 5704 5703 5703 5702
5760 5760 5759 5758 5757 5755 5754 5753 5751 5749 5748 5746 5744 5742 5739 5737 5735 5733 5730 5728 5726 5724 5722 5720 5718 5716 5714 5713 5711 5709 5708 5707 5705 5704 5702 5701 5700 5699 5698 5697 5696 5695 5694
5752 5751 5751 5750 5749 5748 5747 5745 5744 5743 5741 5739 5737 5735 5733 5731 5729 5727 5724 5722 5720 5717 5715 5713 5711 5709 5708 5706 5705 5703 5701 5700 5698 5697 5695 5694 5693 5692 5690 5689 5688 5687 5686
5742 5742 5742 5741 5740 5739 5738 5737 5736 5735 5733 5732 5730 5728 5726 5724 5722 5719 5717 5715 5712 5710 5708 5706 5704 5702 5700 5699 5697 5695 5694 5692 5690 5689 5687 5686 5684 5683 5682 5680 5679 5677 5676
5732 5732 5732 5732 5731 5730 5729 5728 5727 5726 5725 5723 5721 5720 5718 5716 5714 5711 5709 5707 5704 5702 5700 5698 5696 5694 5692 5690 5688 5687 5685 5683 5681 5680 5678 5677 5675 5673 5672 5670 5668 5667 5665
5721 5721 5721 5721 5721 5720 5719 5719 5718 5716 5715 5713 5712 5710 5708 5707 5705 5702 5700 5698 5696 5693 5691 5689 5687 5685 5683 5681 5679 5677 5675 5674 5672 5670 5668 5666 5664 5663 5661 5659 5657 5655 5654
5709 5710 5710 5710 5710 5709 5709 5708 5707 5706 5705 5703 5702 5700 5698 5697 5695 5693 5690 5688 5686 5684 5681 5679 5677 5675 5673 5671 5669 5667 5665 5663 5661 5659 5657 5655 5653 5651 5649 5647 5644 5642 5641
5697 5697 5698 5698 5698 5698 5697 5697 5696 5695 5694 5692 5691 5689 5687 5686 5684 5682 5680 5677 5675 5673 5670 5668 5666 5664 5662 5660 5658 5656 5654 5652 5650 5647 5645 5643 5640 5638 5636 5633 5631 5628 5626
5683 5684 5685 5685 5685 5685 5685 5684 5684 5683 5682 5681 5679 5678 5676 5674 5672 5670 5668 5666 5664 5661 5659 5657 5654 5652 5650 5648 5646 5644 5642 5639 5637 5634 5632 5630 5627 5624 5622 5619 5616 5613 5611
5669 5670 5671 5671 5671 5672 5672 5671 5671 5670 5669 5668 5667 5665 5664 5662 5660 5658 5656 5654 5652 5649 5647 5645 5642 5640 5637 5635 5633 5631 5628 5626 5623 5621 5618 5615 5612 5609 5606 5604 5601 5598 5595
5655 5656 5657 5657 5658 5658 5658 5658 5657 5657 5656 5655 5654 5652 5651 5649 5647 5646 5644 5641 5639 5637 5634 5632 5630 5627 5625 5622 5620 5617 5615 5612 5609 5606 5603 5600 5597 5594 5591 5587 5584 5581 5577
5640 5641 5642 5643 5644 5644 5644 5644 5644 5643 5643 5642 5641 5639 5638 5636 5634 5632 5630 5628 5626 5624 5621 5619 5616 5614 5611 5609 5606 5604 5601 5598 5595 5591 5588 5585 5581 5578 5574 5571 5567 5563 5560